Location: Chatou
(48.8898°N, 2.1586°E)
Time: 01:13:19
(UTC+00:00)

IRIDIUM 104 - Pass Details

Date: 03 February 2023
Orbit: 776 x 779 km, 86.4° (Epoch: 24 March)

Event Time Altitude Azimuth Distance (km) Brightness Sun altitude
Rises 18:26:33 0° 357° (N) 3,276 7.5 -15.8°
Reaches altitude 10° 18:28:55 10° 0° (N) 2,344 6.7 -16.2°
Maximum altitude 18:34:09 69° 84° (E) 835 4.2 -17.0°
Drops below altitude 10° 18:39:21 10° 168° (SSE) 2,325 6.7 -17.9°
Sets 18:41:42 0° 171° (S) 3,247 7.5 -18.2°
